Regional Weather Roundup
Issued by NWS

Home | Current Version | Previous Version | Graphics & Text | Print | Product List | Glossary On
Versions: 1 2 3 4 5 6 7 8 9 10 11 12 13 14 15 16 17 18 19 20 21 22 23 24 25 26 27 28 29 30 31 32 33 34 35 36 37 38 39 40 41 42 43 44 45 46 47 48 49 50
000
ASUS43 KFSD 280702
RWRSD

WEATHER ROUNDUP FOR SOUTH DAKOTA
NATIONAL WEATHER SERVICE SIOUX FALLS SD
200 AM CDT SUN AUG 28 2016

NOTE: "FAIR" INDICATES FEW OR NO CLOUDS BELOW 12,000 FEET WITH NO
SIGNIFICANT WEATHER AND/OR OBSTRUCTIONS TO VISIBILITY.


SDZ001>005-009-010-012>017-280800-
NORTHWEST AND NORTH CENTRAL SOUTH DAKOTA

CITY           SKY/WX    TMP DP  RH WIND       PRES   REMARKS
FAITH            N/A     64  57  78 SE13      29.89F
MOBRIDGE       CLEAR     69  58  67 SE10      29.90S
$$

SDZ012>016-024>037-041>051-057-063-072>074-280800-
SOUTHWEST AND SOUTH CENTRAL SOUTH DAKOTA

CITY           SKY/WX    TMP DP  RH WIND       PRES   REMARKS
RAPID CTY ARPT CLEAR     60  51  72 S5        29.93S
PIERRE         PTCLDY    71  60  68 S15G24    29.90R
CUSTER         CLEAR     51  42  71 W3        30.08S
ELLSWORTH AFB  CLEAR     65  52  63 S8        29.92S
PHILIP         PTCLDY    67  57  70 E3        29.91R
PINE RIDGE     CLEAR     70  60  70 S16G25    29.97S
WINNER         FAIR      74  65  73 S13       29.96S
$$

SDZ004>011-016>023-039-040-280800-
NORTHEAST SOUTH DAKOTA

CITY           SKY/WX    TMP DP  RH WIND       PRES   REMARKS
ABERDEEN       CLOUDY    68  63  84 SE14      29.95S
WATERTOWN      CLOUDY    67  63  87 SE15G22   29.99F THUNDER
BROOKINGS      CLEAR     63  61  93 SE13      30.01F
$$

SDZ017-020-022-023-036>040-048>070-280800-
SOUTHEAST SOUTH DAKOTA

CITY           SKY/WX    TMP DP  RH WIND       PRES   REMARKS
SIOUX FALLS    CLEAR     69  65  86 SE9       30.04F
HURON          CLEAR     68  64  87 S15G23    29.94F
CHAMBERLAIN    CLEAR     71  65  80 S5        29.96S
MITCHELL       CLEAR     68  65  90 SE10      29.98F
YANKTON        CLEAR     66  63  88 SE6       30.02S
$$

ABBREVIATIONS USED IN REMARKS
   TC - TEMPERATURE IN CELSIUS
  WCI - WIND CHILL INDEX
   HX - HEAT INDEX
  VSB - VISIBILITY




USA.gov is the U.S. government's official web portal to all federal, state and local government web resources and services.